ZBAA Airport Information

Runway Information
Runway 01 Length 12468 ft width 197 ft
Elevation 94 ft Threshold 0 ft Heading 353
Runway 19 Length 12468 ft Width 197 ft
Elevation 84 ft Threshold 0 ft Heading 173
Runway 18L Length 12468 ft width 197 ft
Elevation 110 ft Threshold 0 ft Heading 173
Runway 36R Length 12468 ft Width 197 ft
Elevation 99 ft Threshold 0 ft Heading 353
Runway 18R Length 10499 ft width 164 ft
Elevation 116 ft Threshold 0 ft Heading 173
Runway 36L Length 10499 ft Width 164 ft
Elevation 107 ft Threshold 0 ft Heading 353
Airport Frequencies
Type APP Name BEIJING AP Frequency 119.6 MHZ
Type APP Name BEIJING AP Frequency 119.7 MHZ
Type APP Name BEIJING AP Frequency 120.6 MHZ
Type APP Name BEIJING AP Frequency 121.1 MHZ
Type APP Name BEIJING AP Frequency 126.1 MHZ
Type APP Name BEIJING AP Frequency 127.75 MHZ
Type ATIS Name BEIJING AT Frequency 127.6 MHZ
Type CLD Name BEIJING DE Frequency 121.6 MHZ
Type GND Name GND EAST Frequency 121.7 MHZ
Type GND Name BEIJING GN Frequency 121.7 MHZ
Type GND Name GND WEST Frequency 121.9 MHZ
Type TWR Name BEIJING EA Frequency 118.5 MHZ
Type TWR Name BEIJING W Frequency 124.3 MHZ
Airport Navaids
Type VOR-DME Name Beijing Frequency 114700 KHZ
Type VOR-DME Name Shaziying Frequency 117200 KHZ
Airport Weather Information & NOTAM
ADDS - METARS form results

(0452 UTC 16 October 2019)
Data provider http://aviationweather.gov/metar/data/
 
METAR text: ZBAA 160430Z 31002MPS 250V360 CAVOK 18/M03 Q1027 NOSIG
Conditions at: ZBAA (BEIJING/PEKING , CN) observed 0430 UTC 16 October 2019
Temperature: 18.0°C (64°F)
Dewpoint: -3.0°C (27°F) [RH = 24%]
Pressure (altimeter): 30.32 inches Hg (1027.0 mb)
Winds: from the NW (310 degrees) at 5 MPH (4 knots; 2.1 m/s)
Visibility: 6 or more miles (10+ km)
Ceiling: ceiling and visibility are OK
Clouds: unknown
Weather: no significant weather observed at this time

METAR text: ZBAA 160400Z VRB02MPS CAVOK 18/M02 Q1027 NOSIG
Conditions at: ZBAA (BEIJING/PEKING , CN) observed 0400 UTC 16 October 2019
Temperature: 18.0°C (64°F)
Dewpoint: -2.0°C (28°F) [RH = 26%]
Pressure (altimeter): 30.32 inches Hg (1027.0 mb)
Winds: variable direction winds at 5 MPH (4 knots; 2.1 m/s)
Visibility: 6 or more miles (10+ km)
Ceiling: ceiling and visibility are OK
Clouds: unknown
Weather: no significant weather observed at this time

Forecast for: ZBAA (BEIJING/PEKING , CN)
Text: TAF ZBAA 160310Z 1606/1706 18004MPS 6000 NSC TX16/1607Z TN08/1621Z
Forecast period: 0600 UTC 16 October 2019 to 0600 UTC 17 October 2019
Forecast type: FROM: standard forecast or significant change
Winds: from the S (180 degrees) at 9 MPH (8 knots; 4.1 m/s)
Visibility: 4 miles (6 km)
Ceiling: unknown
Clouds: missing
Weather: no significant weather forecast for this period